ENOV

Details ICAO ENOV (HOV)
Name Orsta-Volda Hovden
Region Norway
Timezone Europe/Oslo (UTC+2.0)
Plans Departing 19
Arriving 17
Stats Elevation 243 ft / 74 m (AMSL)
Location 62.179996° 6.073612°
Runways 1
Magnetic Variation 1.238° E
Sunrise 2018-05-23 02:21:33 UTC / 2018-05-23 04:21:33 Local
Sunset 2018-05-23 20:46:13 UTC / 2018-05-23 22:46:13 Local
Advertisement - Login to hide

Runways

ID Width Length Bearing (true) Bearing (mag) Surface Threshold Offset Overrun Length
07 98 ft / 30 m 2,843 ft / 866 m 59.99° 58.75° Asphalt 98 ft / 30 m 0 ft / 0 m
25 98 ft / 30 m 2,843 ft / 866 m 240.01° 238.77° Asphalt 118 ft / 36 m 0 ft / 0 m

Approach Navaids

Runway Type Ident Frequency Range Bearing (true) Bearing (mag) Slope Elevation
07 Localiser HN 111.50 MHz 20 nm / 37 km 121.00° 119.76° - 243 ft / 74 m (AMSL)
07 DME HN 111.50 MHz 25 nm / 46 km - - - 243 ft / 74 m (AMSL)

Map

Weather


0- 5 10 15 20 25 30 35+ Temperature / ° C

Clouds and Precipitation
Forecast for 2018-05-23 12:00 UTC. Updated 2 hours ago

Ground ~20,000 ft ~40,000 ft Winds

METAR

ENOV 231320Z VRB05KT CAVOK 19/09 Q1025 RMK WIND 2175FT 15004KT

TAF

Not found
Warning: Do not use this data for real-world aviation or navigation. No guarantee of current accuracy is given.